Home > Weather > Yellowknife > Past weeks

Flag for Canada Weather for the Past 2 Weeks in Yellowknife, Northwest Territories, Canada

Now
52 °F

Scattered clouds.


Feels Like: 48 °F
Forecast: 29 / 56 °F
Wind: 12 mph from Southeast

Location: Yellowknife

Current Time: May 6, 2016 at 2:38:36 PM

Latest Report: May 6, 2016 at 2:00 PM


Visibility: 15 mi

Pressure: 30.05 "Hg

Humidity: 41%

Dew Point: 28 °F

Location of YellowknifeLocation

Historic Weather in Yellowknife — Graph

°F

Yellowknife Temperature Yesterday

Maximum temperature yesterday: 54 °F (at 5:00 PM)
Minimum temperature yesterday: 39 °F (at 4:00 AM)
Average temperature yesterday: 45 °F

High & Low Weather Summary for the Past Weeks

 TemperatureHumidityPressure
High68 °F (May 4, 12:00 PM)93% (Apr 28, 7:00 AM)30.54 "Hg (Apr 28, 7:00 AM)
Low10 °F (Apr 22, 5:00 AM)26% (May 2, 6:00 PM)29.47 "Hg (May 4, 7:00 PM)
Average40 °F59%30.05 "Hg
* Reported Apr 21 1:00 PM — May 6 1:00 PM, Yellowknife, Weather by CustomWeather, © 2016

Note: Actual official high and low records may vary slightly from our data, if they occured in-between our weather recording intervals... More about our weather records

Advertising

Yellowknife Weather History for the Previous 24 Hours

Scroll right to see more
 ConditionsComfort  
Time TempWeatherWind HumidityBarometerVisibility
1:00 PM
Fri, May 6
50 °FScattered clouds.7 mph40%30.06 "Hg15 mi
12:00 PM50 °FScattered clouds.8 mph40%30.07 "Hg15 mi
11:00 AM46 °FPassing clouds.6 mph46%30.08 "Hg15 mi
10:00 AM46 °FPassing clouds.6 mph50%30.09 "Hg15 mi
9:00 AM43 °FPassing clouds.No wind53%30.09 "Hg15 mi
8:00 AM41 °FPassing clouds.2 mph57%30.07 "Hg15 mi
7:00 AM36 °FPassing clouds.No wind70%30.06 "Hg15 mi
6:00 AM32 °FPassing clouds.3 mph75%30.06 "Hg15 mi
5:00 AM30 °FPassing clouds.5 mph75%30.05 "Hg15 mi
4:00 AM32 °FPassing clouds.3 mph69%30.03 "Hg15 mi
3:00 AM34 °FPassing clouds.5 mph65%30.02 "Hg15 mi
2:00 AM34 °FPassing clouds.5 mph70%30.01 "Hg15 mi
1:00 AM37 °FPassing clouds.6 mph56%29.99 "Hg15 mi
12:00 AM39 °FPassing clouds.6 mph56%29.98 "Hg15 mi
11:00 PM
Thu, May 5
41 °FPassing clouds.8 mph57%29.96 "Hg15 mi
10:00 PM45 °FPartly sunny.6 mph49%29.93 "Hg15 mi
9:00 PM48 °FPartly sunny.13 mph43%29.91 "Hg15 mi
8:00 PM50 °FBroken clouds.16 mph43%29.89 "Hg15 mi
7:00 PM52 °FPartly sunny.20 mph44%29.88 "Hg15 mi
6:00 PM50 °FPartly sunny.20 mph43%29.86 "Hg15 mi
5:00 PM54 °FPartly sunny.22 mph41%29.85 "Hg15 mi
4:00 PM52 °FBroken clouds.18 mph41%29.83 "Hg15 mi
3:00 PM52 °FPartly sunny.21 mph47%29.81 "Hg15 mi
2:00 PM52 °FSprinkles. Partly sunny.20 mph50%29.81 "Hg15 mi
Weather by CustomWeather, © 2016

See weather overviewHow to use our weather pages